International Skating Union - Official Site

ISU Neo Senior World Cup Speed Skating Inzell
November 25-26, 2017

Draw | Lap Times | Index | World Cup

Referee: Roar  ERIKSEN  (NOR)
Starter: Bartosz  DAWIDOWSKI  (POL)
StartTime: EndTime: Air Temp: Ice Temp: Humidity:
14:53 15:04 11.9℃ -7.5℃ 44%
Result 3000m Ladies Division A
Rankings as of Nov 26 2017 4:12PM
Rank: No.: Name: Nation: Time: Behind: Points:
1 314 Veronika  Suslova RUS RUS 4:19.12200m - 20.66 - (20.6)
600m - 52.80 - (32.1)
1000m - 1:26.03 - (33.2)
1400m - 1:59.35 - (33.3)
1800m - 2:33.29 - (33.9)
2200m - 3:07.59 - (34.3)
2600m - 3:43.06 - (35.4)
3000m - 4:19.12 - (36.0)
100
2 308 Leia  Behlau GER GER 4:19.74200m - 20.62 - (20.6)
600m - 53.13 - (32.5)
1000m - 1:26.16 - (33.0)
1400m - 1:59.58 - (33.4)
1800m - 2:33.53 - (33.9)
2200m - 3:08.41 - (34.8)
2600m - 3:43.91 - (35.5)
3000m - 4:19.74 - (35.8)
0.62 80
3 315 Anastasiia  Zueva RUS RUS 4:24.76200m - 21.24 - (21.2)
600m - 53.92 - (32.6)
1000m - 1:27.14 - (33.2)
1400m - 2:00.77 - (33.6)
1800m - 2:35.17 - (34.3)
2200m - 3:10.41 - (35.2)
2600m - 3:46.84 - (36.4)
3000m - 4:24.76 - (37.9)
5.64 70
4 309 Valeriya  Chadova KAZ KAZ 4:34.65200m - 21.18 - (21.1)
600m - 54.77 - (33.5)
1000m - 1:28.33 - (33.5)
1400m - 2:03.17 - (34.8)
1800m - 2:39.40 - (36.2)
2200m - 3:17.04 - (37.6)
2600m - 3:55.58 - (38.5)
3000m - 4:34.65 - (39.0)
15.53 60
5 313 Anna  Opytova RUS RUS 4:34.90200m - 20.75 - (20.7)
600m - 54.19 - (33.4)
1000m - 1:29.43 - (35.2)
1400m - 2:04.65 - (35.2)
1800m - 2:40.84 - (36.1)
2200m - 3:18.03 - (37.1)
2600m - 3:56.30 - (38.2)
3000m - 4:34.90 - (38.5)
15.78 50
6 307 Ellia  Smeding GBR GBR 4:38.64200m - 21.48 - (21.4)
600m - 54.88 - (33.4)
1000m - 1:30.50 - (35.6)
1400m - 2:06.95 - (36.4)
1800m - 2:43.79 - (36.8)
2200m - 3:21.67 - (37.8)
2600m - 4:00.08 - (38.4)
3000m - 4:38.64 - (38.5)
19.52 44